Location: *
(44.9667°S, 169.2167°W)
Time: 02:57:27
(UTC+00:00)

Daily predictions for brighter satellites

Satellite Brightness Start Highest point End
(mag) Time Altitude Azimuth Time Altitude Azimuth Time Altitude Azimuth
Cosmos 1777 Rocket 4.4 04:18:54 10° S 04:23:59 43° ESE 04:28:59 10° NE
Cosmos 1408 3.1 04:26:14 10° NNW 04:29:58 67° W 04:33:44 10° S
Cosmos 2322 Rocket 4.5 04:28:04 10° W 04:31:38 17° SW 04:35:12 10° S
Cosmos 1892 3.7 04:28:00 10° NNW 04:31:48 51° WSW 04:35:38 10° S
Cosmos 1503 Rocket 4.4 04:26:45 10° SSW 04:32:02 71° WNW 04:37:13 10° N
Cosmos 1869 4.4 04:28:50 10° SSW 04:32:48 51° W 04:36:40 10° N
Cosmos 2058 2.9 04:31:12 10° N 04:35:19 66° E 04:39:32 10° SSE
Meteor 2-15 4.4 04:31:39 10° S 04:37:48 68° E 04:43:50 10° NNE
Cosmos 2098 Rocket 2.0 04:36:33 10° N 04:39:38 83° E 04:42:37 10° S
Cosmos 2278 Rocket 2.2 04:35:28 10° SSW 04:41:15 83° ESE 04:46:57 10° NNE
deb Chang Zheng 4 4.4 04:38:28 10° SSE 04:42:26 32° E 04:46:22 10° NNE
Cosmos 2369 Rocket 3.9 04:40:29 10° S 04:43:14 13° SE 04:45:32 11° ESE
CENTAUR R/B 4.2 04:41:00 10° W 04:47:27 29° SSW 04:53:06 10° SSE
Cosmos 2219 Rocket 3.4 04:43:08 10° NW 04:48:26 41° SW 04:53:46 10° SSE
SJ 16-02 2.1 04:46:03 10° S 04:50:05 31° ESE 04:54:04 10° NE
Cosmos 967 Rocket 4.5 04:44:01 10° SSW 04:50:29 73° SE 04:56:49 10° NE
Cosmos 2360 Rocket 4.4 04:47:22 10° W 04:51:20 19° SW 04:55:21 10° S
Cosmos 1900 4.4 04:47:04 10° SSW 04:52:13 85° ESE 04:57:22 10° NE
CZ-2C R/B 2.8 04:46:56 10° NNE 04:52:28 60° ESE 04:58:00 10° S
Meteor 1-31 Rocket 4.0 04:51:22 10° S 04:55:03 43° WSW 04:58:41 10° NW
Cosmos 1825 2.9 04:52:58 10° NNW 04:56:43 56° WSW 05:00:30 10° S
CSL-04 DEB 4.3 04:53:43 10° NNE 04:57:38 68° ESE 05:01:40 10° S
USA 234 3.7 04:52:33 12° ESE 04:58:34 48° NE 05:04:52 10° NNW
COSMOS 2428 3.9 04:54:13 10° NW 04:59:37 41° SW 05:05:03 10° SSE
NOSS 0 Rocket 4.1 04:54:18 10° NNW 05:00:33 78° WSW 05:06:51 10° SSE
Cosmos 1553 Rocket 4.1 04:55:35 10° S 05:01:35 52° ESE 05:07:31 10° NNE
Cosmos 1933 4.2 05:02:38 10° SSE 05:06:19 29° ESE 05:09:55 10° NE
YAOGAN 6 3.0 05:03:13 10° S 05:06:47 65° WSW 05:10:19 10° NNW
CZ-4B R/B 1.7 05:03:46 10° N 05:06:50 64° WNW 05:10:00 10° SSW
SMAP 3.5 05:07:20 10° SSE 05:11:48 40° E 05:16:12 10° NNE
Meteor 2-3 Rocket 4.2 05:07:22 10° NNE 05:12:29 37° E 05:17:42 10° SSE
BREEZE-M DEB (TANK) 2.9 05:12:18 10° WSW 05:14:45 29° S 05:15:17 25° SSE
Cosmos 1633 2.5 05:13:20 10° N 05:16:53 63° E 05:20:31 10° SSE
SL-8 R/B 3.8 05:12:53 10° W 05:17:46 71° SSW 05:20:43 24° ESE
Cosmos 1689 Rocket 2.3 05:16:10 10° NE 05:18:55 42° ESE 05:21:44 10° S
Okean O Rocket 2.7 05:18:39 23° E 05:19:03 24° E 05:22:40 10° NNE
Cosmos 1980 4.1 05:13:48 10° NW 05:19:28 67° WSW 05:25:11 10° SSE
CZ-2C R/B 3.7 05:19:00 21° ESE 05:20:59 28° E 05:25:06 10° NNE
ATLAS 3B R/B 3.3 05:15:29 10° NW 05:22:55 62° SW 05:30:10 10° SSE
Cosmos 405 Rocket 4.1 05:19:58 10° NW 05:23:33 40° WSW 05:27:16 10° S
NOAA 12 4.1 05:20:48 10° SSE 05:26:10 64° ENE 05:31:26 10° N
CZ-4B R/B 4.1 05:22:59 10° S 05:27:17 48° WSW 05:31:22 10° NW
Radarsat Rocket 4.2 05:21:29 10° SSE 05:27:18 46° E 05:32:54 10° N
Envisat 3.9 05:24:13 10° S 05:29:13 51° WSW 05:34:09 10° NW
PSLV R/B 4.3 05:27:25 10° N 05:31:33 69° WNW 05:35:43 10° SSW
Cosmos 1606 3.4 05:28:52 10° SSW 05:32:39 54° W 05:36:21 10° N
SL-16 R/B 2.3 05:27:40 10° N 05:33:11 56° ENE 05:36:59 20° SE
Cosmos 1242 Rocket 2.4 05:29:31 10° S 05:33:17 80° E 05:36:58 10° NNE
Cosmos 1461 3.8 05:29:04 10° SW 05:33:19 54° WNW 05:37:43 10° NNE
Cosmos 1937 Rocket 4.4 05:31:01 10° S 05:35:18 27° SE 05:35:18 27° SE
DMSP B5D2-2 4.0 05:31:22 10° NNE 05:36:39 82° ESE 05:42:00 10° SSW
ERS-2 2.1 05:36:56 10° NNE 05:40:34 60° ESE 05:44:15 10° S
CZ-4B DEB 4.1 05:35:46 10° SSE 05:41:21 80° ENE 05:46:50 10° NNW
Cosmos 1939 Rocket 3.0 05:40:15 32° SE 05:41:56 53° E 05:46:02 10° N
Okean 3 Rocket 4.1 05:38:50 10° NNE 05:42:29 37° ENE 05:42:29 37° ENE
SAR-Lupe-4 3.4 05:39:21 10° NNE 05:42:58 78° ESE 05:46:39 10° S
ATLAS CENTAUR R/B 1.2 05:39:58 10° SSW 05:44:16 66° SE 05:45:21 45° ENE
Lacrosse 5 rocket 3.7 05:42:20 10° NNE 05:43:17 13° NE 05:43:17 13° NE
Cosmos 1766 Rocket 3.9 05:41:33 10° NNE 05:45:40 42° E 05:45:40 42° E
NOAA 6 4.1 05:41:09 10° SSE 05:46:22 81° WSW 05:51:32 10° NNW
Cosmos 2297 3.6 05:41:46 10° SSW 05:47:36 73° ESE 05:53:21 10° NNE
Lacrosse 5 2.4 05:42:41 10° SW 05:47:45 59° NW 05:52:26 12° NNE
FengYun 1-2 T 4.1 05:42:18 10° SSE 05:47:54 73° ENE 05:53:24 10° N
Cosmos 1655 Rocket 4.0 05:41:37 10° N 05:47:55 70° E 05:54:21 10° SSE
Cosmos 1763 Rocket 3.8 05:43:20 10° N 05:48:23 47° ENE 05:49:42 39° ESE
CORIOLIS 4.1 05:43:10 10° SSE 05:48:42 72° ENE 05:54:10 10° N
BREEZE-M DEB (TANK) 3.9 05:38:34 10° WNW 05:48:47 80° SSW 05:50:31 39° ESE
SAR-Lupe-1 4.3 05:50:04 10° N 05:53:40 72° WNW 05:57:20 10° SSW
Cosmos 1867 3.4 05:48:25 10° SW 05:53:51 86° SE 05:57:28 22° NE
Cosmos 2237 Rocket 3.6 05:55:51 10° WNW 06:01:05 36° SW 06:06:23 10° SSE
Cosmos 1943 Rocket 2.1 05:55:55 10° SSW 06:01:38 71° ESE 06:04:30 30° NE
Cosmos 2151 3.8 05:57:51 10° NNW 06:01:59 50° WSW 06:06:11 10° S
Cosmos 883 Rocket 4.4 05:58:23 10° S 06:04:39 69° E 06:10:54 10° NNE
NOSS 3-1 (C) 4.4 06:02:34 10° N 06:10:49 44° ENE 06:12:07 41° E
MOS 1-B Rocket 3.9 06:06:42 10° NNE 06:12:24 88° WNW 06:18:45 10° SSW
Cosmos 990 Rocket 3.9 06:12:32 10° SSW 06:17:47 85° WNW 06:19:52 38° NNE
Cosmos 468 Rocket 3.9 06:13:43 10° NNW 06:19:03 87° ENE 06:20:08 59° SSE
Cosmos 2266 Rocket 4.0 06:15:28 10° NNW 06:21:33 78° W 06:27:49 10° S
Cosmos 1898 Rocket 3.4 06:20:00 10° SSW 06:25:17 90° NNW 06:25:40 77° NNE
H-2A R/B 4.3 06:29:50 22° NNW 06:29:50 22° NNW 06:31:18 10° NNW
Cosmos 2369 Rocket 2.5 06:22:50 10° SSW 06:27:21 51° SSE 06:27:21 51° SSE
SJ 16-02 3.4 06:24:46 10° SW 06:28:33 27° W 06:32:18 10° NNW
Cosmos 1151 Rocket 4.0 06:28:49 10° SSW 06:31:52 41° SW 06:31:52 41° SW
CZ-4B R/B 3.4 06:31:21 27° S 06:34:16 66° WSW 06:39:32 10° NNW
Cosmos 1607 4.5 06:32:41 10° SW 06:38:41 55° WNW 06:41:58 27° N
USA 234 3.5 06:39:55 47° SSE 06:41:40 62° SSW 06:48:09 10° WNW
Cosmos 2315 Rocket 4.4 06:47:09 10° SSW 06:53:26 63° W 06:59:41 10° N
Okean O Rocket 3.1 06:56:06 36° W 06:56:06 36° W 06:59:38 10° NW
CZ-2C R/B 4.3 07:00:04 32° SW 07:00:55 34° WSW 07:05:14 10° NW
ATLAS 3B R/B 4.5 07:09:25 10° WSW 07:15:09 23° SSW 07:17:25 20° S
SL-16 R/B 4.0 07:12:53 10° WNW 07:17:39 27° SW 07:18:54 25° SSW
ATLAS CENTAUR R/B 4.5 07:20:29 10° W 07:21:33 13° W 07:21:33 13° W
